SLM993 EHAM-SMJP

Flight info

Callsign SLM993
Flight time N/A
Altitude 36000
Route IDRID L980 LOGAN DCT SAM N19 ADKIK DCT JOZMA DCT GAPLI/M079F360 DCT OMOKO DCT 45N020W 38N030W/M079F380 33N035W 28N040W 24N045W DCT NEZBT/N0453F400 DCT 16N050W 0927N05300W 0730N05400W DCT TODOL
Aircraft A343/H-SDE2E3FGHIJ4J5M1RWXY/LB1D1

Departure

Time 2026-04-27 10:47
Airport Amsterdam Airport Schiphol (EHAM)

Arrival

Time N/A
Airport Johan Adolf Pengel International Airport (SMJP)
Time Latitude Longitude Altitude Speed Heading
2026-04-27 10:02 52.31161 4.76793 2 ft 0 kts 303°
2026-04-27 10:29 52.31148 4.76824 3 ft 4 kts 308°
2026-04-27 10:29 52.31130 4.76857 4 ft 4 kts 321°
2026-04-27 10:29 52.31108 4.76877 3 ft 4 kts 355°
2026-04-27 10:30 52.31098 4.76878 4 ft 0 kts 11°
2026-04-27 10:32 52.31099 4.76878 4 ft 1 kts 11°
2026-04-27 10:33 52.31117 4.76892 9 ft 5 kts 31°
2026-04-27 10:33 52.31154 4.76938 1 ft 9 kts 36°
2026-04-27 10:33 52.31217 4.77008 1 ft 13 kts 34°
2026-04-27 10:33 52.31301 4.77100 1 ft 16 kts 33°
2026-04-27 10:34 52.31392 4.77188 1 ft 15 kts 19°
2026-04-27 10:34 52.31477 4.77153 2 ft 12 kts 309°
2026-04-27 10:34 52.31483 4.77024 1 ft 11 kts 267°
2026-04-27 10:34 52.31479 4.76895 1 ft 12 kts 267°
2026-04-27 10:35 52.31474 4.76741 1 ft 15 kts 266°
2026-04-27 10:35 52.31468 4.76561 1 ft 17 kts 266°
2026-04-27 10:35 52.31461 4.76356 1 ft 19 kts 267°
2026-04-27 10:35 52.31453 4.76129 1 ft 21 kts 266°
2026-04-27 10:36 52.31445 4.75887 1 ft 23 kts 267°
2026-04-27 10:36 52.31435 4.75617 1 ft 24 kts 266°
2026-04-27 10:36 52.31422 4.75338 1 ft 25 kts 265°
2026-04-27 10:36 52.31414 4.75047 1 ft 26 kts 267°
2026-04-27 10:37 52.31405 4.74753 1 ft 27 kts 268°
2026-04-27 10:37 52.31396 4.74496 1 ft 17 kts 265°
2026-04-27 10:37 52.31391 4.74335 1 ft 13 kts 269°
2026-04-27 10:37 52.31444 4.74283 1 ft 9 kts
2026-04-27 10:38 52.31521 4.74291 1 ft 13 kts
2026-04-27 10:38 52.31621 4.74301 4 ft 15 kts
2026-04-27 10:38 52.31746 4.74314 2 ft 21 kts
2026-04-27 10:38 52.31899 4.74327 -2 ft 22 kts
2026-04-27 10:39 52.32017 4.74306 -2 ft 15 kts 319°
2026-04-27 10:39 52.32034 4.74153 -2 ft 13 kts 273°
2026-04-27 10:39 52.32038 4.74005 -1 ft 12 kts 272°
2026-04-27 10:39 52.32042 4.73881 2 ft 11 kts 274°
2026-04-27 10:40 52.32048 4.73745 4 ft 14 kts 274°
2026-04-27 10:40 52.32055 4.73577 5 ft 15 kts 274°
2026-04-27 10:40 52.32066 4.73414 5 ft 14 kts 287°
2026-04-27 10:40 52.32132 4.73294 4 ft 15 kts 319°
2026-04-27 10:41 52.32216 4.73175 3 ft 17 kts 319°
2026-04-27 10:41 52.32308 4.73046 0 ft 19 kts 319°
2026-04-27 10:41 52.32406 4.72908 1 ft 18 kts 319°
2026-04-27 10:41 52.32500 4.72775 0 ft 18 kts 319°
2026-04-27 10:42 52.32592 4.72646 1 ft 17 kts 319°
2026-04-27 10:42 52.32674 4.72526 4 ft 15 kts 314°
2026-04-27 10:42 52.32743 4.72399 3 ft 15 kts 311°
2026-04-27 10:42 52.32815 4.72267 3 ft 16 kts 311°
2026-04-27 10:43 52.32894 4.72120 1 ft 18 kts 311°
2026-04-27 10:43 52.32979 4.71963 1 ft 18 kts 311°
2026-04-27 10:43 52.33062 4.71808 1 ft 18 kts 311°
2026-04-27 10:43 52.33136 4.71658 3 ft 16 kts 303°
2026-04-27 10:44 52.33132 4.71493 3 ft 15 kts 233°
2026-04-27 10:44 52.33060 4.71387 3 ft 14 kts 220°
2026-04-27 10:44 52.32981 4.71271 1 ft 15 kts 221°
2026-04-27 10:44 52.32910 4.71167 1 ft 12 kts 222°
2026-04-27 10:45 52.32864 4.71047 0 ft 13 kts 260°
2026-04-27 10:45 52.32870 4.70917 1 ft 9 kts 281°
2026-04-27 10:45 52.32901 4.70890 0 ft 5 kts 359°
2026-04-27 10:45 52.32994 4.70898 -2 ft 32 kts
2026-04-27 10:46 52.33389 4.70933 0 ft 81 kts
2026-04-27 10:46 52.34090 4.70993 -3 ft 122 kts
2026-04-27 10:46 52.35049 4.71084 1 ft 154 kts
2026-04-27 10:46 52.36171 4.71184 311 ft 159 kts
2026-04-27 10:47 52.37281 4.71256 740 ft 162 kts
2026-04-27 10:47 52.38407 4.71340 1215 ft 163 kts
2026-04-27 10:47 52.39535 4.71440 1608 ft 164 kts
2026-04-27 10:47 52.40663 4.71548 1964 ft 164 kts
2026-04-27 10:48 52.41818 4.71648 2380 ft 164 kts
2026-04-27 10:48 52.42938 4.71740 2741 ft 163 kts
2026-04-27 10:48 52.44075 4.71880 3042 ft 166 kts
2026-04-27 10:48 52.45244 4.72039 3321 ft 175 kts
2026-04-27 10:49 52.46502 4.72175 3505 ft 188 kts
2026-04-27 10:49 52.47852 4.72308 3672 ft 202 kts
2026-04-27 10:49 52.49322 4.72484 3822 ft 222 kts
2026-04-27 10:49 52.50895 4.72648 4072 ft 238 kts
2026-04-27 10:50 52.52611 4.72814 4422 ft 249 kts
2026-04-27 10:50 52.54309 4.72975 4941 ft 253 kts
2026-04-27 10:50 52.56075 4.72890 5437 ft 257 kts 349°
2026-04-27 10:50 52.57711 4.71757 5945 ft 261 kts 323°
2026-04-27 10:51 52.58876 4.69550 6432 ft 266 kts 297°
2026-04-27 10:51 52.59328 4.66574 6949 ft 270 kts 270°
2026-04-27 10:51 52.59190 4.63540 7485 ft 271 kts 268°
2026-04-27 10:51 52.59122 4.60498 7991 ft 273 kts 269°
2026-04-27 10:52 52.58908 4.57410 8521 ft 275 kts 255°
2026-04-27 10:52 52.58025 4.54653 9000 ft 280 kts 229°
2026-04-27 10:52 52.56456 4.52742 9535 ft 283 kts 207°
2026-04-27 10:52 52.54640 4.51453 10055 ft 286 kts 203°
2026-04-27 10:53 52.52789 4.50229 10491 ft 290 kts 204°
2026-04-27 10:53 52.48944 4.47642 10987 ft 312 kts 204°
2026-04-27 10:53 52.46916 4.46262 11224 ft 322 kts 204°
2026-04-27 10:54 52.44817 4.44831 11450 ft 332 kts 204°
2026-04-27 10:54 52.42669 4.43359 11663 ft 341 kts 205°
2026-04-27 10:54 52.40586 4.41453 11945 ft 347 kts 219°
2026-04-27 10:54 52.38951 4.38571 12317 ft 348 kts 238°
2026-04-27 10:55 52.38134 4.36313 12605 ft 349 kts 242°
2026-04-27 10:55 52.36618 4.31621 13201 ft 351 kts 243°
2026-04-27 10:55 52.35865 4.29278 13495 ft 352 kts 243°
2026-04-27 10:55 52.34721 4.25744 13934 ft 354 kts 243°
2026-04-27 10:56 52.33563 4.22191 14350 ft 355 kts 243°
2026-04-27 10:56 52.32400 4.18632 14736 ft 357 kts 243°
2026-04-27 10:56 52.31141 4.15138 15111 ft 360 kts 237°
2026-04-27 10:56 52.29649 4.11852 15501 ft 362 kts 234°
2026-04-27 10:57 52.28135 4.08687 15876 ft 364 kts 234°
2026-04-27 10:57 52.26537 4.05358 16282 ft 365 kts 234°
2026-04-27 10:57 52.24970 4.02091 16684 ft 367 kts 234°
2026-04-27 10:57 52.23399 3.98815 17084 ft 369 kts 234°
2026-04-27 10:58 52.21814 3.95512 17493 ft 371 kts 234°
2026-04-27 10:58 52.20228 3.92207 17947 ft 371 kts 234°
2026-04-27 10:58 52.18642 3.88907 18433 ft 371 kts 234°
2026-04-27 10:58 52.17047 3.85591 18829 ft 373 kts 234°
2026-04-27 10:59 52.15441 3.82256 19182 ft 375 kts 234°
2026-04-27 10:59 52.13831 3.78917 19538 ft 377 kts 234°
2026-04-27 10:59 52.12214 3.75568 19900 ft 379 kts 234°
2026-04-27 11:00 52.08943 3.68806 20627 ft 382 kts 234°
2026-04-27 11:00 52.07303 3.65422 20987 ft 384 kts 234°
2026-04-27 11:00 52.05646 3.62008 21349 ft 385 kts 234°
2026-04-27 11:00 52.03979 3.58579 21702 ft 387 kts 234°
2026-04-27 11:01 52.02307 3.55143 22050 ft 389 kts 234°
2026-04-27 11:01 52.00629 3.51700 22391 ft 391 kts 234°
2026-04-27 11:01 51.98944 3.48239 22723 ft 392 kts 234°
2026-04-27 11:01 51.97302 3.44720 23116 ft 392 kts 236°
2026-04-27 11:02 51.95696 3.41148 23457 ft 394 kts 236°
2026-04-27 11:02 51.94101 3.37553 23736 ft 397 kts 237°
2026-04-27 11:02 51.92491 3.33929 24021 ft 399 kts 236°
2026-04-27 11:02 51.90864 3.30291 24308 ft 400 kts 236°
2026-04-27 11:03 51.89252 3.26711 24594 ft 401 kts 236°
2026-04-27 11:03 51.87582 3.23002 24887 ft 402 kts 237°
2026-04-27 11:03 51.86146 3.19140 25168 ft 401 kts 245°
2026-04-27 11:03 51.85104 3.14966 25434 ft 400 kts 255°
2026-04-27 11:04 51.84508 3.10573 25706 ft 401 kts 261°
2026-04-27 11:04 51.84116 3.06119 25998 ft 402 kts 263°
2026-04-27 11:04 51.83811 3.01640 26271 ft 403 kts 264°
2026-04-27 11:04 51.83540 2.97128 26544 ft 404 kts 264°
2026-04-27 11:05 51.83274 2.92598 26803 ft 405 kts 264°
2026-04-27 11:05 51.83002 2.88091 27019 ft 407 kts 264°
2026-04-27 11:05 51.82716 2.83536 27262 ft 409 kts 264°
2026-04-27 11:05 51.82420 2.78973 27532 ft 410 kts 264°
2026-04-27 11:06 51.82114 2.74394 27794 ft 411 kts 264°
2026-04-27 11:06 51.81804 2.69818 28040 ft 412 kts 264°
2026-04-27 11:06 51.81491 2.65215 28296 ft 413 kts 264°
2026-04-27 11:06 51.81177 2.60601 28546 ft 414 kts 264°
2026-04-27 11:07 51.80857 2.55977 28795 ft 415 kts 263°
2026-04-27 11:07 51.80533 2.51363 29041 ft 416 kts 263°
2026-04-27 11:07 51.80206 2.46722 29276 ft 417 kts 263°
2026-04-27 11:07 51.79876 2.42066 29531 ft 419 kts 263°
2026-04-27 11:08 51.79542 2.37368 29651 ft 422 kts 263°
2026-04-27 11:08 51.79216 2.32805 29861 ft 424 kts 263°
2026-04-27 11:08 51.78878 2.28080 30120 ft 424 kts 263°
2026-04-27 11:08 51.78548 2.23488 30374 ft 424 kts 263°
2026-04-27 11:09 51.78213 2.18679 30603 ft 424 kts 264°
2026-04-27 11:09 51.77923 2.13939 30762 ft 426 kts 264°
2026-04-27 11:09 51.77660 2.09310 30929 ft 428 kts 264°
2026-04-27 11:09 51.77384 2.04381 31177 ft 428 kts 264°
2026-04-27 11:10 51.77113 1.99611 31456 ft 427 kts 264°
2026-04-27 11:10 51.76848 1.95036 31717 ft 426 kts 264°
2026-04-27 11:10 51.76555 1.90117 31899 ft 428 kts 264°
2026-04-27 11:10 51.76267 1.85346 32077 ft 429 kts 264°
2026-04-27 11:11 51.75974 1.80568 32346 ft 428 kts 264°
2026-04-27 11:11 51.75679 1.75793 32606 ft 427 kts 264°
2026-04-27 11:11 51.75383 1.71039 32842 ft 426 kts 264°
2026-04-27 11:11 51.75079 1.66293 33080 ft 426 kts 263°
2026-04-27 11:12 51.74557 1.61594 33304 ft 425 kts 256°
2026-04-27 11:12 51.73683 1.57076 33522 ft 425 kts 251°
2026-04-27 11:12 51.72638 1.52616 33740 ft 425 kts 250°
2026-04-27 11:12 51.71547 1.48202 33957 ft 425 kts 249°
2026-04-27 11:13 51.70425 1.43789 34136 ft 425 kts 248°
2026-04-27 11:13 51.69301 1.39409 34200 ft 428 kts 248°
2026-04-27 11:13 51.68165 1.34990 34366 ft 428 kts 248°
2026-04-27 11:13 51.67032 1.30572 34520 ft 427 kts 249°
2026-04-27 11:14 51.65900 1.26149 34675 ft 428 kts 249°
2026-04-27 11:14 51.64771 1.21732 34799 ft 428 kts 249°
2026-04-27 11:14 51.63638 1.17302 34931 ft 429 kts 249°
2026-04-27 11:14 51.62505 1.12879 35065 ft 429 kts 249°
2026-04-27 11:15 51.61365 1.08432 35180 ft 429 kts 249°
2026-04-27 11:15 51.60227 1.04005 35328 ft 430 kts 249°
2026-04-27 11:15 51.59083 0.99566 35444 ft 430 kts 249°
2026-04-27 11:15 51.57940 0.95136 35549 ft 431 kts 249°
2026-04-27 11:16 51.55627 0.86200 35651 ft 435 kts 248°
2026-04-27 11:16 51.54468 0.81737 35814 ft 434 kts 248°
2026-04-27 11:16 51.53305 0.77271 35936 ft 434 kts 248°
2026-04-27 11:17 51.52141 0.72807 36047 ft 435 kts 248°
2026-04-27 11:17 51.50979 0.68359 36165 ft 435 kts 248°
2026-04-27 11:17 51.49811 0.63897 36269 ft 436 kts 248°
2026-04-27 11:17 51.48632 0.59399 36294 ft 438 kts 248°
2026-04-27 11:18 51.46279 0.50455 36292 ft 436 kts 248°
2026-04-27 11:18 51.43951 0.41641 36292 ft 437 kts 248°
2026-04-27 11:19 51.41577 0.32684 36293 ft 439 kts 248°
2026-04-27 11:19 51.39189 0.23715 36315 ft 439 kts 248°
2026-04-27 11:20 51.36801 0.14774 36320 ft 439 kts 248°
2026-04-27 11:20 51.34398 0.05815 36319 ft 439 kts 248°
2026-04-27 11:21 51.31996 -0.03105 36284 ft 438 kts 248°
2026-04-27 11:21 51.29581 -0.12039 36291 ft 442 kts 248°
2026-04-27 11:22 51.27145 -0.21018 36293 ft 442 kts 248°
2026-04-27 11:22 51.24702 -0.29982 36292 ft 442 kts 248°
2026-04-27 11:23 51.22251 -0.38946 36291 ft 442 kts 247°
2026-04-27 11:23 51.19795 -0.47894 36291 ft 442 kts 247°
2026-04-27 11:24 51.17329 -0.56839 36290 ft 442 kts 247°
2026-04-27 11:24 51.14858 -0.65770 36290 ft 442 kts 247°
2026-04-27 11:25 51.12379 -0.74697 36291 ft 442 kts 247°
2026-04-27 11:25 51.09952 -0.83405 36291 ft 442 kts 247°
2026-04-27 11:26 51.07466 -0.92292 36292 ft 442 kts 247°
2026-04-27 11:26 51.04964 -1.01202 36292 ft 445 kts 247°
2026-04-27 11:27 51.02437 -1.10164 36292 ft 448 kts 247°
2026-04-27 11:27 50.99892 -1.19157 36292 ft 447 kts 247°
2026-04-27 11:28 50.97355 -1.28088 36291 ft 444 kts 247°
2026-04-27 11:28 50.95243 -1.37224 36294 ft 442 kts 258°
2026-04-27 11:29 50.93928 -1.46731 36304 ft 444 kts 259°
2026-04-27 11:29 50.92721 -1.56315 36288 ft 447 kts 259°
2026-04-27 11:30 50.91501 -1.65969 36301 ft 447 kts 259°
2026-04-27 11:30 50.90261 -1.75592 36304 ft 447 kts 259°
2026-04-27 11:31 50.89010 -1.85160 36285 ft 447 kts 259°
2026-04-27 11:31 50.87742 -1.94795 36287 ft 450 kts 259°
2026-04-27 11:32 50.86464 -2.04482 36291 ft 453 kts 259°
2026-04-27 11:32 50.85174 -2.14174 36279 ft 453 kts 259°
2026-04-27 11:33 50.83878 -2.23799 36282 ft 452 kts 259°
2026-04-27 11:33 50.82558 -2.33546 36286 ft 452 kts 259°
2026-04-27 11:34 50.81241 -2.43235 36288 ft 454 kts 259°
2026-04-27 11:34 50.79915 -2.52926 36290 ft 456 kts 259°
2026-04-27 11:35 50.78654 -2.62760 36287 ft 456 kts 261°
2026-04-27 11:35 50.77561 -2.72530 36282 ft 456 kts 261°
2026-04-27 11:36 50.76457 -2.82302 36279 ft 456 kts 261°
2026-04-27 11:36 50.75308 -2.92146 36290 ft 460 kts 261°
2026-04-27 11:37 50.74133 -3.02030 36291 ft 462 kts 261°
2026-04-27 11:37 50.72940 -3.11973 36294 ft 461 kts 261°
2026-04-27 11:38 50.71751 -3.21811 36295 ft 461 kts 261°
2026-04-27 11:38 50.70545 -3.31738 36286 ft 462 kts 261°
2026-04-27 11:39 50.69535 -3.39990 36294 ft 465 kts 261°
2026-04-27 11:39 50.68305 -3.49972 36295 ft 466 kts 261°
2026-04-27 11:40 50.67067 -3.59949 36290 ft 466 kts 261°
2026-04-27 11:40 50.65820 -3.69924 36291 ft 466 kts 260°
2026-04-27 11:41 50.64555 -3.79963 36297 ft 468 kts 261°
2026-04-27 11:41 50.63279 -3.90025 36297 ft 472 kts 261°
2026-04-27 11:42 50.61980 -4.00122 36295 ft 472 kts 260°
2026-04-27 11:42 50.60601 -4.10174 36301 ft 472 kts 259°
2026-04-27 11:43 50.59195 -4.20252 36295 ft 472 kts 260°
2026-04-27 11:43 50.57806 -4.30239 36305 ft 475 kts 260°